Location: Mentone
(34.5413°N, 85.5351°W)
Time: 21:41:03
(UTC-05:00)

ATLAS 5 CENTAUR R/B - Visible Passes

Search period start: 24 August 2016 00:00
Search period end: 03 September 2016 00:00
Orbit: 664 x 997 km, 63.4° (Epoch: 18 July)

Date Brightness Start Highest point End Pass type
(mag) Time Alt. Az. Time Alt. Az. Time Alt. Az.
24 Aug 1.7 04:27:26 46° SW 04:28:49 75° WNW 04:33:56 10° NNE visible
25 Aug 1.6 04:09:30 72° WSW 04:09:56 81° WNW 04:15:03 10° NNE visible
26 Aug 1.9 03:51:30 74° NNE 03:51:30 74° NNE 03:56:09 10° NNE visible
26 Aug 4.0 05:34:39 10° WNW 05:36:36 12° NW 05:38:35 10° NNW visible
27 Aug 2.6 03:33:28 50° NE 03:33:28 50° NE 03:37:17 10° NNE visible
27 Aug 3.9 05:15:25 10° WNW 05:17:39 13° NW 05:19:56 10° NNW visible
28 Aug 3.3 03:15:22 35° NE 03:15:22 35° NE 03:18:23 10° NNE visible
28 Aug 3.9 04:56:56 12° WNW 04:58:42 14° NW 05:01:14 10° N visible
29 Aug 3.8 02:57:14 26° NE 02:57:14 26° NE 02:59:29 10° NE visible
29 Aug 3.8 04:38:48 14° NW 04:39:45 14° NW 04:42:32 10° N visible
30 Aug 4.3 02:39:04 19° NE 02:39:04 19° NE 02:40:35 10° NE visible
30 Aug 3.9 04:20:37 15° NW 04:20:48 15° NW 04:23:49 10° N visible
31 Aug 4.6 02:20:51 15° NE 02:20:51 15° NE 02:21:40 10° NE visible
31 Aug 3.9 04:02:25 16° NW 04:02:25 16° NW 04:05:03 10° N visible
01 Sep 4.9 02:02:37 11° NE 02:02:37 11° NE 02:02:45 10° NE visible
01 Sep 4.1 03:44:10 16° NNW 03:44:10 16° NNW 03:46:17 10° N visible
02 Sep 4.2 03:25:54 15° NNW 03:25:54 15° NNW 03:27:31 10° N visible
